Regional Weather Roundup
Issued by NWS

Home | Current Version | Previous Version | Graphics & Text | Print | Product List | Glossary On
Versions: 1 2 3 4 5 6 7 8 9 10 11 12 13 14 15 16 17 18 19 20 21 22 23 24 25 26 27
000
ASUS45 KBOU 220410
RWRCO

WEATHER ROUNDUP FOR COLORADO
NATIONAL WEATHER SERVICE DENVER/BOULDER CO
900 PM MST SUN JAN 21 2018

NOTE: "FAIR" INDICATES FEW OR NO CLOUDS BELOW 12000 FEET WITH NO
SIGNIFICANT WEATHER AND/OR OBSTRUCTIONS TO VISIBILITY.

COZ001>005-013-030-031-220500-
...NORTHWEST COLORADO...

CITY           SKY/WX    TMP DP  RH WIND       PRES   REMARKS
CRAIG          CLOUDY    14   7  73 SW7       30.13R WCI   4
HAYDEN         MOCLDY   N/A N/A N/A W9        30.11R
MEEKER         CLOUDY    19  13  77 W6        30.12R WCI  11
RABBIT EARS PA LGT SNOW   5   1  85 W10G18    29.90S WCI -10
STEAMBOAT SPGS MOCLDY    13   8  78 CALM      30.06R
WALDEN         FAIR       9   5  85 N9        29.99R WCI  -5
$$

COZ006>008-011-220500-
...WEST CENTRAL VALLEYS...

CITY           SKY/WX    TMP DP  RH WIND       PRES   REMARKS
GRAND JUNCTION FAIR      19  12  74 NE9       30.17R WCI   8
MONTROSE       MOCLDY    23  13  65 S3        30.16R
EAGLE          FAIR      18  12  77 NE3       30.09R
RIFLE          MOCLDY    25  18  74 W12       30.13R WCI  14
DELTA          MOCLDY    30  13  49 W10       30.14R WCI  21
NUCLA          FAIR      19  10  68 SE6       30.18R WCI  11
$$

COZ017>023-064>068-220500-
...SOUTHWEST COLORADO...

CITY           SKY/WX    TMP DP  RH WIND       PRES   REMARKS
DURANGO        FAIR      20  10  65 NW8       29.98R WCI  10
CORTEZ         FAIR      16  10  77 CALM      30.12R
PAGOSA SPRINGS CLOUDY    20  20  97 CALM      29.97R
TELLURIDE      CLOUDY    12   8  82 W14G22    30.02R WCI  -3
WOLF CREEK PAS FAIR       1  -2  85 NW8G17    29.89R WCI -12
$$

COZ009-010-012-014-032>034-037-058>063-220500-
...CENTRAL COLORADO...

CITY           SKY/WX    TMP DP  RH WIND       PRES   REMARKS
ASPEN          FAIR      14   9  80 N6        30.00R WCI   5
BUENA VISTA    FAIR      18   5  57 NW12G24   29.89R WCI   5
COPPER MTN     NOT AVBL
BERTHOUD PASS  HVY SNOW  -4 -15  59 N20G39    29.75R VSB 1/4 WCI -27
COTTONWOOD PAS   N/A     18   7  62 NW14G32   29.82S WCI   4
GUNNISON       FAIR       9   2  73 N5        29.99R WCI   1
KREMMLING      FAIR      21  16  79 CALM      30.02R
LEADVILLE      CLOUDY     7   2  80 N13       29.86R HAZE    WCI  -9
MONARCH PASS   LGT SNOW   1  -4  78 W29       29.89R VSB 1   WCI -24
SALIDA         FAIR      20   9  63 N3        29.97S
SUNLIGHT       CLOUDY   N/A N/A N/A MISG      29.99R
WILKERSON PASS MOCLDY     5   0  78 N15G23    29.78S WCI -13
$$

COZ069>075-220500-
...SAN LUIS VALLEY/SANGRE DE CRISTO MOUNTAINS...

CITY           SKY/WX    TMP DP  RH WIND       PRES   REMARKS
ALAMOSA        FAIR      18   4  54 NW15      29.90R WCI   4
DEL NORTE      FAIR      19   0  44 W8        29.92S WCI   9
LA VETA PASS   LGT SNOW  10   7  85 W14G21      N/A  WCI  -5
SAGUACHE       CLOUDY    19   9  63 NW15      29.91R WCI   5
$$

COZ035-036-038>040-220500-
...NORTHERN COLORADO FRONT RANGE...

CITY           SKY/WX    TMP DP  RH WIND       PRES   REMARKS
DENVER INTL AP CLOUDY    25  14  63 NW24      29.94S WCI   9
DMNS CITY PARK NOT AVBL
AURORA         CLOUDY    23  14  69 N18       29.94S WCI   8
FRONT RANGE AP CLOUDY    25  19  80 NW23      29.94S WCI  10
ERIE MUNI ARPT CLOUDY    27  13  56 N16       30.01F WCI  15
BOULDER MUN AP CLOUDY    27  23  86 SW3       29.96S
CENTENNIAL     CLOUDY    22  15  75 NW14      29.93S WCI   9
BROOMFIELD     MOCLDY    25  18  74 NW6       29.95S WCI  18
FORT COLLINS   CLOUDY    26  19  74 N17       29.97S WCI  13
LONGMONT       CLOUDY    30  15  52 N10G18    29.98S WCI  21
$$

COZ041-046-047-076>085-087-088-220500-
...PIKES PEAK/PALMER DIVIDE AND SOUTHERN FOOTHILLS...

CITY           SKY/WX    TMP DP  RH WIND       PRES   REMARKS
COLO. SPRINGS  CLOUDY    22  14  71 NW13      29.89S WCI  10
A. F. ACADEMY  LGT SNOW  20  14  79 N22G28    29.87R WCI   3
SCHRIEVER AFB  FAIR      20  13  73 N16G24    29.89S WCI   6
CHEYENNE MTN   MOCLDY    20  10  67 NW8       29.81R WCI  10
ELLICOTT         N/A    N/A N/A N/A N18G26      N/A
FALCON         FLURRIES  18  12  77 N17G29    29.86S WCI   3
FORT CARSON    CLOUDY    24  12  60 N20G30    29.89S WCI  10
LIMON          LGT SNOW  21  20  96 NW31G43   29.85S VSB 1   WCI   2
MONUMENT HILL  CLOUDY    16  12  86 N22G32    29.88R WCI  -2
CANON CITY     FAIR      25  16  68 NW12      29.90S WCI  14
WALSENBURG     FAIR      19  18  93 SW5       29.91S WCI  13
TRINIDAD       CLOUDY    25  16  68 NW9       29.92R WCI  15
$$

COZ042>045-048>051-090-091-220500-
...NORTHEAST COLORADO...

CITY           SKY/WX    TMP DP  RH WIND       PRES   REMARKS
GREELEY ARPT   FAIR      26  18  71 NW16      29.97  WCI  14
AKRON          FOG       23  22  96 NW32      29.86S VSB 1/2 WCI   5
BURLINGTON     FOG       25  23  92 NW28G44   29.77R VSB 1/2 WCI   9
WRAY           CLOUDY    28  27  93 N28G35    29.81S WCI  13
YUMA           LGT SNOW  27  23  86 NW23G30   29.83F WCI  12
STERLING       LGT SNOW  28  25  86 N29G36    29.88S WCI  13
HOLYOKE        CLOUDY    30  27  86 N29G38    29.82S WCI  15
FORT MORGAN    LGT SNOW  25  21  85 NW26G33   29.94S WCI   9
$$

COZ086-089-092>099-220500-
...SOUTHEAST COLORADO...

CITY           SKY/WX    TMP DP  RH WIND       PRES   REMARKS
PUEBLO         CLOUDY    29  17  61 N23G33    29.92R WCI  15
LA JUNTA       CLOUDY    30  19  63 NW23G31   29.91R WCI  17
LAMAR          MIX PCPN  29  22  75 NW25G36   29.84R WCI  14
SPRINGFIELD      N/A     25  23  92 NW29G39   29.81R WCI   8
$$




USA.gov is the U.S. government's official web portal to all federal, state and local government web resources and services.